Time,TemperatureF,DewpointF,PressureIn,WindDirection,WindDirectionDegrees,WindSpeedMPH,WindSpeedGustMPH,Humidity,HourlyPrecipIn,Conditions,Clouds,dailyrainin,SoftwareType,DateUTC
2013-01-24 00:00:00,17.7,-3.0,29.48,North,360,0.0,1.0,39,0.00,,---,0.00,VWS V12.08,2013-01-24 05:00:00,
2013-01-24 00:03:00,17.7,-3.6,29.48,North,360,0.0,1.0,38,0.00,,---,0.00,VWS V12.08,2013-01-24 05:03:00,
2013-01-24 00:05:00,17.7,-3.0,29.48,WNW,285,0.0,1.0,39,0.00,,---,0.00,VWS V12.08,2013-01-24 05:05:00,
2013-01-24 00:07:00,17.8,-3.5,29.48,WNW,285,0.0,1.0,38,0.00,,---,0.00,VWS V12.08,2013-01-24 05:07:00,
2013-01-24 00:12:00,18.6,-2.8,29.48,NNW,331,0.0,1.0,38,0.00,,---,0.00,VWS V12.08,2013-01-24 05:12:00,
2013-01-24 00:17:00,18.3,-3.6,29.47,NW,325,0.0,2.0,37,0.00,,---,0.00,VWS V12.08,2013-01-24 05:17:00,
2013-01-24 00:22:00,18.0,-4.4,29.47,North,360,0.0,9.0,36,0.00,,---,0.00,VWS V12.08,2013-01-24 05:22:00,
2013-01-24 00:27:00,18.1,-3.8,29.47,NW,325,1.0,9.0,37,0.00,,---,0.00,VWS V12.08,2013-01-24 05:27:00,
2013-01-24 00:32:00,18.8,-1.5,29.46,NNW,331,0.0,0.0,40,0.00,,---,0.00,VWS V12.08,2013-01-24 05:32:00,
2013-01-24 00:37:00,18.6,-1.7,29.46,NW,306,0.0,1.0,40,0.00,,---,0.00,VWS V12.08,2013-01-24 05:37:00,
2013-01-24 00:42:00,18.6,-1.7,29.46,NW,315,0.0,9.0,40,0.00,,---,0.00,VWS V12.08,2013-01-24 05:42:00,
2013-01-24 00:47:00,18.8,-1.5,29.46,NW,304,0.0,9.0,40,0.00,,---,0.00,VWS V12.08,2013-01-24 05:47:00,
2013-01-24 00:52:00,18.4,-2.4,29.46,NW,325,0.0,9.0,39,0.00,,---,0.00,VWS V12.08,2013-01-24 05:52:00,
2013-01-24 00:57:00,18.1,-1.6,29.46,North,5,0.0,9.0,41,0.00,,---,0.00,VWS V12.08,2013-01-24 05:57:00,
2013-01-24 01:02:00,18.3,-0.4,29.45,NW,307,0.0,5.0,43,0.00,,---,0.00,VWS V12.08,2013-01-24 06:02:00,
2013-01-24 01:07:00,18.3,-2.0,29.45,North,355,2.0,5.0,40,0.00,,---,0.00,VWS V12.08,2013-01-24 06:07:00,
2013-01-24 01:12:00,18.8,-1.0,29.45,SE,127,0.0,5.0,41,0.00,,---,0.00,VWS V12.08,2013-01-24 06:12:00,
2013-01-24 01:17:00,19.5,-0.9,29.45,NW,311,0.0,5.0,40,0.00,,---,0.00,VWS V12.08,2013-01-24 06:17:00,
2013-01-24 01:22:00,19.9,-0.5,29.45,North,360,4.0,5.0,40,0.00,,---,0.00,VWS V12.08,2013-01-24 06:22:00,
2013-01-24 01:27:00,18.8,-1.5,29.45,North,360,6.0,6.0,40,0.00,,---,0.00,VWS V12.08,2013-01-24 06:27:00,
2013-01-24 01:32:00,18.6,-1.7,29.44,North,5,0.0,0.0,40,0.00,,---,0.00,VWS V12.08,2013-01-24 06:32:00,
2013-01-24 01:37:00,18.1,-2.2,29.44,North,360,0.0,3.0,40,0.00,,---,0.00,VWS V12.08,2013-01-24 06:37:00,
2013-01-24 01:42:00,17.5,-2.7,29.44,NW,314,4.0,9.0,40,0.00,,---,0.00,VWS V12.08,2013-01-24 06:42:00,
2013-01-24 01:47:00,16.7,-2.9,29.44,NW,318,1.0,9.0,41,0.00,,---,0.00,VWS V12.08,2013-01-24 06:47:00,
2013-01-24 01:52:00,16.5,-1.6,29.44,WNW,301,0.0,9.0,44,0.00,,---,0.00,VWS V12.08,2013-01-24 06:52:00,
2013-01-24 01:57:00,17.0,-1.6,29.44,North,360,0.0,9.0,43,0.00,,---,0.00,VWS V12.08,2013-01-24 06:57:00,
2013-01-24 02:02:00,17.7,-0.5,29.44,NW,321,0.0,3.0,44,0.00,,---,0.00,VWS V12.08,2013-01-24 07:02:00,
2013-01-24 02:07:00,17.5,-0.7,29.44,NW,312,0.0,4.0,44,0.00,,---,0.00,VWS V12.08,2013-01-24 07:07:00,
2013-01-24 02:12:00,17.0,-1.1,29.44,North,351,0.0,4.0,44,0.00,,---,0.00,VWS V12.08,2013-01-24 07:12:00,
2013-01-24 02:18:00,17.0,-0.7,29.44,North,355,1.0,5.0,45,0.00,,---,0.00,VWS V12.08,2013-01-24 07:18:00,
2013-01-24 02:23:00,16.7,-0.5,29.44,North,5,2.0,7.0,46,0.00,,---,0.00,VWS V12.08,2013-01-24 07:23:00,
2013-01-24 02:28:00,16.5,-0.7,29.43,North,5,1.0,7.0,46,0.00,,---,0.00,VWS V12.08,2013-01-24 07:28:00,
2013-01-24 02:33:00,16.1,-0.6,29.43,NNW,329,1.0,6.0,47,0.00,,---,0.00,VWS V12.08,2013-01-24 07:33:00,
2013-01-24 02:38:00,16.1,0.3,29.43,NNW,333,4.0,6.0,49,0.00,,---,0.00,VWS V12.08,2013-01-24 07:38:00,
2013-01-24 02:43:00,16.5,0.7,29.42,North,9,1.0,6.0,49,0.00,,---,0.00,VWS V12.08,2013-01-24 07:43:00,
2013-01-24 02:48:00,16.7,0.4,29.42,North,360,0.0,6.0,48,0.00,,---,0.00,VWS V12.08,2013-01-24 07:48:00,
2013-01-24 02:53:00,16.9,0.2,29.42,North,5,0.0,6.0,47,0.00,,---,0.00,VWS V12.08,2013-01-24 07:53:00,
2013-01-24 02:58:00,17.0,-0.2,29.42,North,5,0.0,6.0,46,0.00,,---,0.00,VWS V12.08,2013-01-24 07:58:00,
2013-01-24 03:03:00,17.2,0.0,29.42,North,355,0.0,2.0,46,0.00,,---,0.00,VWS V12.08,2013-01-24 08:03:00,
2013-01-24 03:08:00,17.3,0.1,29.42,North,355,0.0,2.0,46,0.00,,---,0.00,VWS V12.08,2013-01-24 08:08:00,
2013-01-24 03:14:00,17.3,-0.4,29.42,WNW,291,0.0,6.0,45,0.00,,---,0.00,VWS V12.08,2013-01-24 08:14:00,
2013-01-24 03:19:00,17.0,0.3,29.42,NE,34,0.0,6.0,47,0.00,,---,0.00,VWS V12.08,2013-01-24 08:19:00,
2013-01-24 03:24:00,17.0,-0.2,29.42,NW,313,0.0,6.0,46,0.00,,---,0.00,VWS V12.08,2013-01-24 08:24:00,
2013-01-24 03:30:00,16.9,-0.3,29.43,NNW,329,0.0,3.0,46,0.00,,---,0.00,VWS V12.08,2013-01-24 08:30:00,
2013-01-24 03:36:00,16.9,0.2,29.43,NW,323,4.0,5.0,47,0.00,,---,0.00,VWS V12.08,2013-01-24 08:36:00,
2013-01-24 03:41:00,16.4,-0.3,29.43,NW,308,0.0,5.0,47,0.00,,---,0.00,VWS V12.08,2013-01-24 08:41:00,
2013-01-24 03:46:00,16.7,0.9,29.43,NW,326,2.0,5.0,49,0.00,,---,0.00,VWS V12.08,2013-01-24 08:46:00,
2013-01-24 03:51:00,16.4,0.2,29.43,North,360,2.0,5.0,48,0.00,,---,0.00,VWS V12.08,2013-01-24 08:51:00,
2013-01-24 03:56:00,15.6,0.3,29.43,North,360,2.0,7.0,50,0.00,,---,0.00,VWS V12.08,2013-01-24 08:56:00,
2013-01-24 04:01:00,15.4,0.1,29.42,NW,322,0.0,6.0,50,0.00,,---,0.00,VWS V12.08,2013-01-24 09:01:00,
2013-01-24 04:06:00,15.6,-0.2,29.42,North,355,1.0,7.0,49,0.00,,---,0.00,VWS V12.08,2013-01-24 09:06:00,
2013-01-24 04:11:00,15.6,0.3,29.42,WNW,300,1.0,7.0,50,0.00,,---,0.00,VWS V12.08,2013-01-24 09:11:00,
2013-01-24 04:16:00,16.1,1.2,29.42,North,5,0.0,7.0,51,0.00,,---,0.00,VWS V12.08,2013-01-24 09:16:00,
2013-01-24 04:21:00,16.5,1.1,29.42,NNE,17,0.0,7.0,50,0.00,,---,0.00,VWS V12.08,2013-01-24 09:21:00,
2013-01-24 04:26:00,16.9,1.5,29.42,North,360,0.0,7.0,50,0.00,,---,0.00,VWS V12.08,2013-01-24 09:26:00,
2013-01-24 04:32:00,17.0,1.6,29.42,NW,319,0.0,5.0,50,0.00,,---,0.00,VWS V12.08,2013-01-24 09:32:00,
2013-01-24 04:38:00,16.5,1.1,29.42,West,259,0.0,5.0,50,0.00,,---,0.00,VWS V12.08,2013-01-24 09:38:00,
2013-01-24 04:43:00,16.4,0.2,29.43,NW,317,1.0,5.0,48,0.00,,---,0.00,VWS V12.08,2013-01-24 09:43:00,
2013-01-24 04:48:00,16.7,0.9,29.43,NW,318,1.0,5.0,49,0.00,,---,0.00,VWS V12.08,2013-01-24 09:48:00,
2013-01-24 04:53:00,17.0,1.1,29.43,NW,318,1.0,5.0,49,0.00,,---,0.00,VWS V12.08,2013-01-24 09:53:00,
2013-01-24 04:58:00,16.1,-0.1,29.43,North,5,0.0,11.0,48,0.00,,---,0.00,VWS V12.08,2013-01-24 09:58:00,
2013-01-24 05:03:00,15.7,0.4,29.43,West,281,0.0,7.0,50,0.00,,---,0.00,VWS V12.08,2013-01-24 10:03:00,
2013-01-24 05:09:00,15.9,0.1,29.43,WNW,296,0.0,7.0,49,0.00,,---,0.00,VWS V12.08,2013-01-24 10:09:00,
2013-01-24 05:15:00,16.2,0.4,29.44,North,360,1.0,7.0,49,0.00,,---,0.00,VWS V12.08,2013-01-24 10:15:00,
2013-01-24 05:21:00,15.9,-0.3,29.44,NW,323,0.0,9.0,48,0.00,,---,0.00,VWS V12.08,2013-01-24 10:21:00,
2013-01-24 05:26:00,15.7,-0.5,29.44,NW,321,0.0,9.0,48,0.00,,---,0.00,VWS V12.08,2013-01-24 10:26:00,
2013-01-24 05:31:00,15.7,-1.9,29.44,North,355,0.0,9.0,45,0.00,,---,0.00,VWS V12.08,2013-01-24 10:31:00,
2013-01-24 05:36:00,15.4,-1.2,29.44,ENE,72,2.0,9.0,47,0.00,,---,0.00,VWS V12.08,2013-01-24 10:36:00,
2013-01-24 05:41:00,15.2,-1.4,29.44,North,355,0.0,9.0,47,0.00,,---,0.00,VWS V12.08,2013-01-24 10:41:00,
2013-01-24 05:46:00,15.7,-0.5,29.45,North,355,0.0,9.0,48,0.00,,---,0.00,VWS V12.08,2013-01-24 10:46:00,
2013-01-24 05:51:00,16.1,-0.1,29.45,NNW,333,0.0,9.0,48,0.00,,---,0.00,VWS V12.08,2013-01-24 10:51:00,
2013-01-24 05:57:00,16.9,0.2,29.45,NW,326,3.0,9.0,47,0.00,,---,0.00,VWS V12.08,2013-01-24 10:57:00,
2013-01-24 06:02:00,16.4,0.6,29.45,NW,313,0.0,3.0,49,0.00,,---,0.00,VWS V12.08,2013-01-24 11:02:00,
2013-01-24 06:07:00,16.1,0.3,29.45,ENE,68,0.0,6.0,49,0.00,,---,0.00,VWS V12.08,2013-01-24 11:07:00,
2013-01-24 06:13:00,16.5,0.2,29.46,North,360,0.0,6.0,48,0.00,,---,0.00,VWS V12.08,2013-01-24 11:13:00,
2013-01-24 06:18:00,16.2,0.8,29.46,WNW,293,3.0,6.0,50,0.00,,---,0.00,VWS V12.08,2013-01-24 11:18:00,
2013-01-24 06:24:00,16.4,1.0,29.46,North,360,3.0,8.0,50,0.00,,---,0.00,VWS V12.08,2013-01-24 11:24:00,
2013-01-24 06:29:00,16.5,1.1,29.46,North,360,0.0,0.0,50,0.00,,---,0.00,VWS V12.08,2013-01-24 11:29:00,
2013-01-24 06:35:00,15.9,0.1,29.46,NNW,327,0.0,12.0,49,0.00,,---,0.00,VWS V12.08,2013-01-24 11:35:00,
2013-01-24 06:40:00,15.7,0.8,29.46,ENE,62,0.0,12.0,51,0.00,,---,0.00,VWS V12.08,2013-01-24 11:40:00,
2013-01-24 06:45:00,15.9,1.0,29.47,ENE,57,0.0,12.0,51,0.00,,---,0.00,VWS V12.08,2013-01-24 11:45:00,
2013-01-24 06:50:00,16.1,1.6,29.47,North,360,0.0,12.0,52,0.00,,---,0.00,VWS V12.08,2013-01-24 11:50:00,
2013-01-24 06:55:00,16.4,1.0,29.47,NE,56,0.0,12.0,50,0.00,,---,0.00,VWS V12.08,2013-01-24 11:55:00,
2013-01-24 07:00:00,15.9,-0.3,29.47,North,355,5.0,13.0,48,0.00,,---,0.00,VWS V12.08,2013-01-24 12:00:00,
2013-01-24 07:05:00,15.2,0.3,29.47,South,178,0.0,13.0,51,0.00,,---,0.00,VWS V12.08,2013-01-24 12:05:00,
2013-01-24 07:10:00,15.6,1.1,29.47,ENE,74,1.0,13.0,52,0.00,,---,0.00,VWS V12.08,2013-01-24 12:10:00,
2013-01-24 07:15:00,15.9,1.0,29.47,NNW,328,2.0,13.0,51,0.00,,---,0.00,VWS V12.08,2013-01-24 12:15:00,
2013-01-24 07:20:00,15.4,0.5,29.47,NNW,329,2.0,13.0,51,0.00,,---,0.00,VWS V12.08,2013-01-24 12:20:00,
2013-01-24 07:25:00,14.3,-0.1,29.47,NNW,332,12.0,13.0,52,0.00,,---,0.00,VWS V12.08,2013-01-24 12:25:00,
2013-01-24 07:30:00,14.3,0.3,29.48,North,355,0.0,2.0,53,0.00,,---,0.00,VWS V12.08,2013-01-24 12:30:00,
2013-01-24 07:35:00,14.1,0.1,29.48,North,5,10.0,10.0,53,0.00,,---,0.00,VWS V12.08,2013-01-24 12:35:00,
2013-01-24 07:40:00,14.0,0.8,29.48,North,5,4.0,10.0,55,0.00,,---,0.00,VWS V12.08,2013-01-24 12:40:00,
2013-01-24 07:45:00,14.3,0.7,29.48,NW,304,0.0,10.0,54,0.00,,---,0.00,VWS V12.08,2013-01-24 12:45:00,
2013-01-24 07:50:00,14.1,0.1,29.48,ENE,63,0.0,10.0,53,0.00,,---,0.00,VWS V12.08,2013-01-24 12:50:00,
2013-01-24 07:55:00,14.3,0.7,29.48,NNW,329,0.0,10.0,54,0.00,,---,0.00,VWS V12.08,2013-01-24 12:55:00,
2013-01-24 08:00:00,14.6,1.0,29.49,North,360,6.0,11.0,54,0.00,,---,0.00,VWS V12.08,2013-01-24 13:00:00,
2013-01-24 08:05:00,14.8,0.8,29.49,WNW,303,5.0,11.0,53,0.00,,---,0.00,VWS V12.08,2013-01-24 13:05:00,
2013-01-24 08:10:00,14.4,1.2,29.49,NW,323,0.0,11.0,55,0.00,,---,0.00,VWS V12.08,2013-01-24 13:10:00,
2013-01-24 08:15:00,14.9,0.9,29.49,North,360,0.0,11.0,53,0.00,,---,0.00,VWS V12.08,2013-01-24 13:15:00,
2013-01-24 08:20:00,14.9,0.9,29.49,NW,325,0.0,11.0,53,0.00,,---,0.00,VWS V12.08,2013-01-24 13:20:00,
2013-01-24 08:25:00,15.1,0.6,29.49,NW,323,4.0,11.0,52,0.00,,---,0.00,VWS V12.08,2013-01-24 13:25:00,
2013-01-24 08:30:00,15.1,1.5,29.50,North,9,0.0,3.0,54,0.00,,---,0.00,VWS V12.08,2013-01-24 13:30:00,
2013-01-24 08:35:00,15.2,1.1,29.50,North,360,0.0,7.0,53,0.00,,---,0.00,VWS V12.08,2013-01-24 13:35:00,
2013-01-24 08:40:00,15.7,2.0,29.50,NW,311,1.0,7.0,54,0.00,,---,0.00,VWS V12.08,2013-01-24 13:40:00,
2013-01-24 08:46:00,16.4,1.5,29.50,NW,312,0.0,7.0,51,0.00,,---,0.00,VWS V12.08,2013-01-24 13:46:00,
2013-01-24 08:51:00,16.1,2.0,29.50,WSW,249,0.0,7.0,53,0.00,,---,0.00,VWS V12.08,2013-01-24 13:51:00,
2013-01-24 08:56:00,15.7,1.6,29.50,NE,54,0.0,10.0,53,0.00,,---,0.00,VWS V12.08,2013-01-24 13:56:00,
2013-01-24 09:01:00,16.4,0.2,29.50,North,360,7.0,11.0,48,0.00,,---,0.00,VWS V12.08,2013-01-24 14:01:00,
2013-01-24 09:06:00,15.6,-0.2,29.50,North,351,6.0,11.0,49,0.00,,---,0.00,VWS V12.08,2013-01-24 14:06:00,
2013-01-24 09:11:00,15.2,-0.5,29.50,North,355,0.0,13.0,49,0.00,,---,0.00,VWS V12.08,2013-01-24 14:11:00,
2013-01-24 09:16:00,16.1,0.8,29.51,ESE,121,0.0,13.0,50,0.00,,---,0.00,VWS V12.08,2013-01-24 14:16:00,
2013-01-24 09:21:00,16.7,0.4,29.51,NE,44,0.0,14.0,48,0.00,,---,0.00,VWS V12.08,2013-01-24 14:21:00,
2013-01-24 09:26:00,16.7,-0.9,29.51,NNE,27,0.0,14.0,45,0.00,,---,0.00,VWS V12.08,2013-01-24 14:26:00,
2013-01-24 09:31:00,16.4,-0.8,29.51,North,5,0.0,11.0,46,0.00,,---,0.00,VWS V12.08,2013-01-24 14:31:00,
2013-01-24 09:36:00,16.5,-1.6,29.51,North,360,15.0,17.0,44,0.00,,---,0.00,VWS V12.08,2013-01-24 14:36:00,
2013-01-24 09:41:00,16.4,-1.7,29.51,NNE,30,10.0,17.0,44,0.00,,---,0.00,VWS V12.08,2013-01-24 14:41:00,
2013-01-24 09:46:00,16.9,-1.7,29.52,NW,326,0.0,17.0,43,0.00,,---,0.00,VWS V12.08,2013-01-24 14:46:00,
2013-01-24 09:51:00,17.3,-1.9,29.52,NNE,14,1.0,17.0,42,0.00,,---,0.00,VWS V12.08,2013-01-24 14:51:00,
2013-01-24 09:56:00,17.3,-0.4,29.52,North,5,3.0,17.0,45,0.00,,---,0.00,VWS V12.08,2013-01-24 14:56:00,
2013-01-24 10:02:00,18.4,0.1,29.52,North,360,11.0,11.0,44,0.00,,---,0.00,VWS V12.08,2013-01-24 15:02:00,
2013-01-24 10:07:00,18.4,-1.4,29.52,NNE,12,0.0,12.0,41,0.00,,---,0.00,VWS V12.08,2013-01-24 15:07:00,
2013-01-24 10:12:00,19.1,-0.2,29.52,NW,316,0.0,12.0,42,0.00,,---,0.00,VWS V12.08,2013-01-24 15:12:00,
2013-01-24 10:17:00,19.9,-2.7,29.52,NNE,15,3.0,15.0,36,0.00,,---,0.00,VWS V12.08,2013-01-24 15:17:00,
2013-01-24 10:22:00,19.7,-1.8,29.52,WNW,302,10.0,16.0,38,0.00,,---,0.00,VWS V12.08,2013-01-24 15:22:00,
2013-01-24 10:27:00,18.9,-4.2,29.52,North,9,0.0,19.0,35,0.00,,---,0.00,VWS V12.08,2013-01-24 15:27:00,
2013-01-24 10:32:00,20.3,-2.4,29.53,WNW,298,16.0,16.0,36,0.00,,---,0.00,VWS V12.08,2013-01-24 15:32:00,
2013-01-24 10:37:00,19.2,-4.6,29.53,NE,40,0.0,16.0,34,0.00,,---,0.00,VWS V12.08,2013-01-24 15:37:00,
2013-01-24 10:42:00,18.6,-4.5,29.53,NW,319,5.0,16.0,35,0.00,,---,0.00,VWS V12.08,2013-01-24 15:42:00,
2013-01-24 10:47:00,18.6,-3.3,29.53,West,277,3.0,16.0,37,0.00,,---,0.00,VWS V12.08,2013-01-24 15:47:00,
2013-01-24 10:52:00,20.0,-2.7,29.53,NW,304,0.0,16.0,36,0.00,,---,0.00,VWS V12.08,2013-01-24 15:52:00,
2013-01-24 10:57:00,21.1,-1.7,29.53,West,279,0.0,16.0,36,0.00,,---,0.00,VWS V12.08,2013-01-24 15:57:00,
2013-01-24 11:02:00,21.9,-2.2,29.53,SW,231,3.0,6.0,34,0.00,,---,0.00,VWS V12.08,2013-01-24 16:02:00,
2013-01-24 11:07:00,21.0,-7.7,29.53,SE,133,0.0,25.0,27,0.00,,---,0.00,VWS V12.08,2013-01-24 16:07:00,
2013-01-24 11:12:00,21.6,-7.2,29.53,North,360,5.0,25.0,27,0.00,,---,0.00,VWS V12.08,2013-01-24 16:12:00,
2013-01-24 11:17:00,21.6,-8.0,29.52,WNW,286,12.0,25.0,26,0.00,,---,0.00,VWS V12.08,2013-01-24 16:17:00,
2013-01-24 11:22:00,20.8,-7.9,29.52,NNE,17,4.0,25.0,27,0.00,,---,0.00,VWS V12.08,2013-01-24 16:22:00,
2013-01-24 11:27:00,20.6,-8.1,29.52,North,5,7.0,25.0,27,0.00,,---,0.00,VWS V12.08,2013-01-24 16:27:00,
2013-01-24 11:32:00,21.3,-7.5,29.52,WNW,292,0.0,14.0,27,0.00,,---,0.00,VWS V12.08,2013-01-24 16:32:00,
2013-01-24 11:37:00,21.4,-7.4,29.52,NW,309,5.0,22.0,27,0.00,,---,0.00,VWS V12.08,2013-01-24 16:37:00,
2013-01-24 11:42:00,20.8,-9.5,29.52,WNW,294,0.0,27.0,25,0.00,,---,0.00,VWS V12.08,2013-01-24 16:42:00,
2013-01-24 11:47:00,21.0,-9.3,29.51,North,355,11.0,27.0,25,0.00,,---,0.00,VWS V12.08,2013-01-24 16:47:00,
2013-01-24 11:52:00,21.6,-8.8,29.51,NW,322,11.0,27.0,25,0.00,,---,0.00,VWS V12.08,2013-01-24 16:52:00,
2013-01-24 11:57:00,21.3,-9.9,29.51,North,9,6.0,27.0,24,0.00,,---,0.00,VWS V12.08,2013-01-24 16:57:00,
2013-01-24 12:02:00,20.6,-9.6,29.51,South,173,2.0,21.0,25,0.00,,---,0.00,VWS V12.08,2013-01-24 17:02:00,
2013-01-24 12:07:00,21.3,-8.2,29.51,NE,44,2.0,21.0,26,0.00,,---,0.00,VWS V12.08,2013-01-24 17:07:00,
2013-01-24 12:12:00,21.8,-8.6,29.51,WNW,299,2.0,25.0,25,0.00,,---,0.00,VWS V12.08,2013-01-24 17:12:00,
2013-01-24 12:17:00,21.4,-8.9,29.51,ENE,58,2.0,28.0,25,0.00,,---,0.00,VWS V12.08,2013-01-24 17:17:00,
2013-01-24 12:22:00,21.1,-8.4,29.51,NNE,21,11.0,30.0,26,0.00,,---,0.00,VWS V12.08,2013-01-24 17:22:00,
2013-01-24 12:27:00,21.4,-8.1,29.51,NNE,22,6.0,30.0,26,0.00,,---,0.00,VWS V12.08,2013-01-24 17:27:00,
2013-01-24 12:32:00,22.1,-6.8,29.52,WNW,302,7.0,16.0,27,0.00,,---,0.00,VWS V12.08,2013-01-24 17:32:00,
2013-01-24 12:37:00,22.1,-8.3,29.52,WNW,293,6.0,19.0,25,0.00,,---,0.00,VWS V12.08,2013-01-24 17:37:00,
2013-01-24 12:42:00,21.8,-7.8,29.52,WNW,289,1.0,23.0,26,0.00,,---,0.00,VWS V12.08,2013-01-24 17:42:00,
2013-01-24 12:47:00,22.4,-8.9,29.51,ENE,65,5.0,28.0,24,0.00,,---,0.00,VWS V12.08,2013-01-24 17:47:00,
2013-01-24 12:52:00,22.5,-8.0,29.51,WNW,303,11.0,28.0,25,0.00,,---,0.00,VWS V12.08,2013-01-24 17:52:00,
2013-01-24 12:57:00,21.9,-8.5,29.51,ESE,119,3.0,28.0,25,0.00,,---,0.00,VWS V12.08,2013-01-24 17:57:00,
2013-01-24 13:02:00,22.4,-8.1,29.51,NE,38,5.0,33.0,25,0.00,,---,0.00,VWS V12.08,2013-01-24 18:02:00,
2013-01-24 13:08:00,22.4,-8.1,29.51,ESE,110,0.0,33.0,25,0.00,,---,0.00,VWS V12.08,2013-01-24 18:08:00,
2013-01-24 13:13:00,22.5,-8.0,29.51,WNW,296,24.0,33.0,25,0.00,,---,0.00,VWS V12.08,2013-01-24 18:13:00,
2013-01-24 13:18:00,21.6,-8.0,29.51,WSW,248,15.0,33.0,26,0.00,,---,0.00,VWS V12.08,2013-01-24 18:18:00,
2013-01-24 13:23:00,21.9,-6.9,29.51,East,82,0.0,33.0,27,0.00,,---,0.00,VWS V12.08,2013-01-24 18:23:00,
2013-01-24 13:28:00,22.5,-7.2,29.51,North,355,24.0,33.0,26,0.00,,---,0.00,VWS V12.08,2013-01-24 18:28:00,
2013-01-24 13:33:00,22.1,-7.5,29.51,SSE,158,6.0,25.0,26,0.00,,---,0.00,VWS V12.08,2013-01-24 18:33:00,
2013-01-24 13:38:00,23.0,-6.0,29.51,NNE,17,30.0,30.0,27,0.00,,---,0.00,VWS V12.08,2013-01-24 18:38:00,
2013-01-24 13:43:00,23.3,-6.5,29.51,WNW,300,18.0,30.0,26,0.00,,---,0.00,VWS V12.08,2013-01-24 18:43:00,
2013-01-24 13:48:00,23.5,-6.3,29.51,NNE,19,6.0,30.0,26,0.00,,---,0.00,VWS V12.08,2013-01-24 18:48:00,
2013-01-24 13:53:00,23.2,-6.6,29.51,ENE,69,6.0,30.0,26,0.00,,---,0.00,VWS V12.08,2013-01-24 18:53:00,
2013-01-24 13:58:00,23.6,-5.5,29.52,ENE,67,2.0,30.0,27,0.00,,---,0.00,VWS V12.08,2013-01-24 18:58:00,
2013-01-24 14:03:00,23.6,-7.9,29.52,NNE,15,12.0,22.0,24,0.00,,---,0.00,VWS V12.08,2013-01-24 19:03:00,
2013-01-24 14:08:00,23.5,-7.1,29.52,NW,307,18.0,28.0,25,0.00,,---,0.00,VWS V12.08,2013-01-24 19:08:00,
2013-01-24 14:13:00,23.6,-5.5,29.53,NNW,329,7.0,28.0,27,0.00,,---,0.00,VWS V12.08,2013-01-24 19:13:00,
2013-01-24 14:18:00,23.0,-6.8,29.53,ESE,105,4.0,28.0,26,0.00,,---,0.00,VWS V12.08,2013-01-24 19:18:00,
2013-01-24 14:23:00,23.5,-7.1,29.53,NW,310,20.0,28.0,25,0.00,,---,0.00,VWS V12.08,2013-01-24 19:23:00,
2013-01-24 14:28:00,23.2,-6.6,29.53,North,9,7.0,28.0,26,0.00,,---,0.00,VWS V12.08,2013-01-24 19:28:00,
2013-01-24 14:33:00,23.2,-8.2,29.53,NNE,28,15.0,22.0,24,0.00,,---,0.00,VWS V12.08,2013-01-24 19:33:00,
2013-01-24 14:38:00,23.0,-6.8,29.53,North,360,16.0,25.0,26,0.00,,---,0.00,VWS V12.08,2013-01-24 19:38:00,
2013-01-24 14:43:00,23.8,-6.1,29.54,SE,126,0.0,25.0,26,0.00,,---,0.00,VWS V12.08,2013-01-24 19:43:00,
2013-01-24 14:48:00,23.6,-6.2,29.54,NNE,13,10.0,25.0,26,0.00,,---,0.00,VWS V12.08,2013-01-24 19:48:00,
2013-01-24 14:53:00,23.0,-6.0,29.54,South,188,2.0,25.0,27,0.00,,---,0.00,VWS V12.08,2013-01-24 19:53:00,
2013-01-24 14:58:00,23.6,-5.5,29.55,SSE,165,4.0,25.0,27,0.00,,---,0.00,VWS V12.08,2013-01-24 19:58:00,
2013-01-24 15:03:00,23.6,-7.1,29.55,North,355,17.0,25.0,25,0.00,,---,0.00,VWS V12.08,2013-01-24 20:03:00,
2013-01-24 15:08:00,23.5,-7.1,29.55,NNW,329,1.0,25.0,25,0.00,,---,0.00,VWS V12.08,2013-01-24 20:08:00,
2013-01-24 15:13:00,23.8,-5.3,29.55,North,360,16.0,25.0,27,0.00,,---,0.00,VWS V12.08,2013-01-24 20:13:00,
2013-01-24 15:18:00,23.9,-6.0,29.55,South,184,2.0,25.0,26,0.00,,---,0.00,VWS V12.08,2013-01-24 20:18:00,
2013-01-24 15:23:00,24.1,-5.8,29.55,NW,311,15.0,25.0,26,0.00,,---,0.00,VWS V12.08,2013-01-24 20:23:00,
2013-01-24 15:28:00,23.6,-6.2,29.56,NW,323,4.0,25.0,26,0.00,,---,0.00,VWS V12.08,2013-01-24 20:28:00,
2013-01-24 15:33:00,23.3,-7.3,29.56,NNE,15,7.0,26.0,25,0.00,,---,0.00,VWS V12.08,2013-01-24 20:33:00,
2013-01-24 15:38:00,23.2,-5.8,29.56,NW,310,16.0,26.0,27,0.00,,---,0.00,VWS V12.08,2013-01-24 20:38:00,
2013-01-24 15:43:00,23.5,-5.6,29.57,NW,318,13.0,26.0,27,0.00,,---,0.00,VWS V12.08,2013-01-24 20:43:00,
2013-01-24 15:48:00,23.5,-5.6,29.57,NE,44,7.0,26.0,27,0.00,,---,0.00,VWS V12.08,2013-01-24 20:48:00,
2013-01-24 15:53:00,23.2,-6.6,29.57,East,94,0.0,26.0,26,0.00,,---,0.00,VWS V12.08,2013-01-24 20:53:00,
2013-01-24 15:58:00,23.5,-5.6,29.57,East,87,0.0,26.0,27,0.00,,---,0.00,VWS V12.08,2013-01-24 20:58:00,
2013-01-24 16:03:00,22.9,-6.8,29.57,NNE,13,0.0,30.0,26,0.00,,---,0.00,VWS V12.08,2013-01-24 21:03:00,
2013-01-24 16:08:00,22.7,-5.5,29.57,ESE,103,3.0,30.0,28,0.00,,---,0.00,VWS V12.08,2013-01-24 21:08:00,
2013-01-24 16:13:00,22.5,-6.4,29.57,North,355,1.0,30.0,27,0.00,,---,0.00,VWS V12.08,2013-01-24 21:13:00,
2013-01-24 16:18:00,22.7,-5.5,29.57,NNE,22,3.0,30.0,28,0.00,,---,0.00,VWS V12.08,2013-01-24 21:18:00,
2013-01-24 16:23:00,23.3,-5.0,29.57,WNW,295,3.0,30.0,28,0.00,,---,0.00,VWS V12.08,2013-01-24 21:23:00,
2013-01-24 16:28:00,23.3,-5.7,29.58,NE,48,10.0,30.0,27,0.00,,---,0.00,VWS V12.08,2013-01-24 21:28:00,
2013-01-24 16:33:00,22.5,-6.4,29.58,NNE,20,10.0,22.0,27,0.00,,---,0.00,VWS V12.08,2013-01-24 21:33:00,
2013-01-24 16:38:00,22.9,-5.3,29.58,North,355,0.0,22.0,28,0.00,,---,0.00,VWS V12.08,2013-01-24 21:38:00,
2013-01-24 16:43:00,22.7,-6.2,29.59,WNW,300,11.0,22.0,27,0.00,,---,0.00,VWS V12.08,2013-01-24 21:43:00,
2013-01-24 16:48:00,22.2,-6.7,29.59,WNW,300,1.0,32.0,27,0.00,,---,0.00,VWS V12.08,2013-01-24 21:48:00,
2013-01-24 16:53:00,22.1,-6.0,29.59,NNW,331,10.0,32.0,28,0.00,,---,0.00,VWS V12.08,2013-01-24 21:53:00,
2013-01-24 16:58:00,21.9,-6.2,29.60,SW,227,5.0,32.0,28,0.00,,---,0.00,VWS V12.08,2013-01-24 21:58:00,
2013-01-24 17:03:00,22.4,-6.5,29.60,North,360,0.0,18.0,27,0.00,,---,0.00,VWS V12.08,2013-01-24 22:03:00,
2013-01-24 17:08:00,22.1,-6.0,29.60,NE,38,6.0,20.0,28,0.00,,---,0.00,VWS V12.08,2013-01-24 22:08:00,
2013-01-24 17:13:00,21.9,-5.5,29.60,NW,319,5.0,20.0,29,0.00,,---,0.00,VWS V12.08,2013-01-24 22:13:00,
2013-01-24 17:18:00,22.1,-5.3,29.60,NE,49,4.0,20.0,29,0.00,,---,0.00,VWS V12.08,2013-01-24 22:18:00,
2013-01-24 17:23:00,22.1,-5.3,29.60,North,9,0.0,20.0,29,0.00,,---,0.00,VWS V12.08,2013-01-24 22:23:00,
2013-01-24 17:28:00,22.4,-6.5,29.61,North,11,8.0,20.0,27,0.00,,---,0.00,VWS V12.08,2013-01-24 22:28:00,
2013-01-24 17:33:00,22.2,-5.9,29.61,North,11,6.0,20.0,28,0.00,,---,0.00,VWS V12.08,2013-01-24 22:33:00,
2013-01-24 17:38:00,21.9,-5.5,29.61,NE,49,3.0,20.0,29,0.00,,---,0.00,VWS V12.08,2013-01-24 22:38:00,
2013-01-24 17:43:00,21.9,-6.2,29.62,North,5,4.0,22.0,28,0.00,,---,0.00,VWS V12.08,2013-01-24 22:43:00,
2013-01-24 17:48:00,21.6,-5.0,29.62,NNE,26,1.0,22.0,30,0.00,,---,0.00,VWS V12.08,2013-01-24 22:48:00,
2013-01-24 17:53:00,22.1,-4.6,29.62,SSW,202,0.0,22.0,30,0.00,,---,0.00,VWS V12.08,2013-01-24 22:53:00,
2013-01-24 17:58:00,22.1,-6.0,29.63,WNW,294,9.0,22.0,28,0.00,,---,0.00,VWS V12.08,2013-01-24 22:58:00,
2013-01-24 18:03:00,21.9,-4.8,29.63,WSW,254,8.0,10.0,30,0.00,,---,0.00,VWS V12.08,2013-01-24 23:03:00,
2013-01-24 18:08:00,22.1,-5.3,29.63,NE,53,0.0,10.0,29,0.00,,---,0.00,VWS V12.08,2013-01-24 23:08:00,
2013-01-24 18:13:00,22.4,-5.8,29.63,SSE,155,0.0,15.0,28,0.00,,---,0.00,VWS V12.08,2013-01-24 23:13:00,
2013-01-24 18:18:00,21.8,-5.6,29.63,South,186,1.0,18.0,29,0.00,,---,0.00,VWS V12.08,2013-01-24 23:18:00,
2013-01-24 18:23:00,21.6,-5.7,29.63,North,360,13.0,21.0,29,0.00,,---,0.00,VWS V12.08,2013-01-24 23:23:00,
2013-01-24 18:28:00,21.3,-4.6,29.64,NW,320,17.0,21.0,31,0.00,,---,0.00,VWS V12.08,2013-01-24 23:28:00,
2013-01-24 18:33:00,21.1,-5.5,29.64,WNW,298,17.0,17.0,30,0.00,,---,0.00,VWS V12.08,2013-01-24 23:33:00,
2013-01-24 18:38:00,21.4,-5.9,29.64,NW,312,9.0,17.0,29,0.00,,---,0.00,VWS V12.08,2013-01-24 23:38:00,
2013-01-24 18:43:00,20.6,-6.6,29.65,North,5,13.0,27.0,29,0.00,,---,0.00,VWS V12.08,2013-01-24 23:43:00,
2013-01-24 18:48:00,20.8,-6.4,29.65,North,9,6.0,27.0,29,0.00,,---,0.00,VWS V12.08,2013-01-24 23:48:00,
2013-01-24 18:53:00,20.5,-7.4,29.65,North,355,9.0,27.0,28,0.00,,---,0.00,VWS V12.08,2013-01-24 23:53:00,
2013-01-24 18:58:00,20.8,-6.4,29.65,NE,46,1.0,27.0,29,0.00,,---,0.00,VWS V12.08,2013-01-24 23:58:00,
2013-01-24 19:03:00,20.3,-6.9,29.65,SW,214,1.0,16.0,29,0.00,,---,0.00,VWS V12.08,2013-01-25 00:03:00,
2013-01-24 19:08:00,20.2,-6.3,29.65,NNE,17,4.0,20.0,30,0.00,,---,0.00,VWS V12.08,2013-01-25 00:08:00,
2013-01-24 19:13:00,20.3,-5.5,29.67,ENE,75,0.0,20.0,31,0.00,,---,0.00,VWS V12.08,2013-01-25 00:13:00,
2013-01-24 19:18:00,20.0,-7.1,29.67,North,360,4.0,20.0,29,0.00,,---,0.00,VWS V12.08,2013-01-25 00:18:00,
2013-01-24 19:23:00,19.9,-7.2,29.67,SSE,161,0.0,23.0,29,0.00,,---,0.00,VWS V12.08,2013-01-25 00:23:00,
2013-01-24 19:28:00,19.7,-7.4,29.66,East,86,2.0,23.0,29,0.00,,---,0.00,VWS V12.08,2013-01-25 00:28:00,
2013-01-24 19:33:00,19.4,-7.0,29.66,WNW,286,6.0,15.0,30,0.00,,---,0.00,VWS V12.08,2013-01-25 00:33:00,
2013-01-24 19:38:00,19.7,-6.0,29.66,NW,321,10.0,15.0,31,0.00,,---,0.00,VWS V12.08,2013-01-25 00:38:00,
2013-01-24 19:43:00,19.9,-6.5,29.66,NW,309,2.0,16.0,30,0.00,,---,0.00,VWS V12.08,2013-01-25 00:43:00,
2013-01-24 19:48:00,19.9,-5.8,29.66,NW,316,4.0,16.0,31,0.00,,---,0.00,VWS V12.08,2013-01-25 00:48:00,
2013-01-24 19:53:00,20.0,-5.8,29.66,NW,315,0.0,16.0,31,0.00,,---,0.00,VWS V12.08,2013-01-25 00:53:00,
2013-01-24 19:58:00,20.0,-5.1,29.66,NW,324,4.0,16.0,32,0.00,,---,0.00,VWS V12.08,2013-01-25 00:58:00,
2013-01-24 20:03:00,19.9,-4.6,29.66,NNE,13,0.0,6.0,33,0.00,,---,0.00,VWS V12.08,2013-01-25 01:03:00,
2013-01-24 20:08:00,20.5,-4.0,29.66,SW,219,0.0,6.0,33,0.00,,---,0.00,VWS V12.08,2013-01-25 01:08:00,
2013-01-24 20:13:00,20.0,-3.8,29.66,NW,318,0.0,7.0,34,0.00,,---,0.00,VWS V12.08,2013-01-25 01:13:00,
2013-01-24 20:18:00,19.7,-4.7,29.66,North,360,3.0,15.0,33,0.00,,---,0.00,VWS V12.08,2013-01-25 01:18:00,
2013-01-24 20:23:00,19.2,-5.2,29.66,NNW,331,5.0,15.0,33,0.00,,---,0.00,VWS V12.08,2013-01-25 01:23:00,
2013-01-24 20:28:00,18.9,-5.4,29.65,NE,53,0.0,15.0,33,0.00,,---,0.00,VWS V12.08,2013-01-25 01:28:00,
2013-01-24 20:33:00,19.1,-5.9,29.65,NNW,332,0.0,18.0,32,0.00,,---,0.00,VWS V12.08,2013-01-25 01:33:00,
2013-01-24 20:38:00,19.1,-4.0,29.65,SSE,163,3.0,18.0,35,0.00,,---,0.00,VWS V12.08,2013-01-25 01:38:00,
2013-01-24 20:43:00,18.4,-4.7,29.65,East,89,0.0,18.0,35,0.00,,---,0.00,VWS V12.08,2013-01-25 01:43:00,
2013-01-24 20:48:00,18.6,-3.9,29.65,North,360,0.0,18.0,36,0.00,,---,0.00,VWS V12.08,2013-01-25 01:48:00,
2013-01-24 20:53:00,18.8,-4.3,29.65,North,5,9.0,19.0,35,0.00,,---,0.00,VWS V12.08,2013-01-25 01:53:00,
2013-01-24 20:58:00,18.9,-3.6,29.66,NNE,26,4.0,19.0,36,0.00,,---,0.00,VWS V12.08,2013-01-25 01:58:00,
2013-01-24 21:03:00,18.8,-3.7,29.66,NW,317,21.0,21.0,36,0.00,,---,0.00,VWS V12.08,2013-01-25 02:03:00,
2013-01-24 21:08:00,18.3,-4.2,29.66,North,360,1.0,21.0,36,0.00,,---,0.00,VWS V12.08,2013-01-25 02:08:00,
2013-01-24 21:13:00,18.6,-2.8,29.66,North,5,4.0,21.0,38,0.00,,---,0.00,VWS V12.08,2013-01-25 02:13:00,
2013-01-24 21:18:00,18.8,-3.2,29.66,WNW,296,2.0,21.0,37,0.00,,---,0.00,VWS V12.08,2013-01-25 02:18:00,
2013-01-24 21:23:00,18.9,-3.1,29.66,ESE,105,2.0,21.0,37,0.00,,---,0.00,VWS V12.08,2013-01-25 02:23:00,
2013-01-24 21:28:00,18.8,-3.2,29.66,WNW,282,2.0,21.0,37,0.00,,---,0.00,VWS V12.08,2013-01-25 02:28:00,
2013-01-24 21:33:00,18.3,-3.0,29.66,NNE,21,4.0,26.0,38,0.00,,---,0.00,VWS V12.08,2013-01-25 02:33:00,
2013-01-24 21:38:00,18.4,-3.5,29.66,NNE,21,0.0,26.0,37,0.00,,---,0.00,VWS V12.08,2013-01-25 02:38:00,
2013-01-24 21:43:00,18.3,-3.0,29.66,SSE,148,3.0,26.0,38,0.00,,---,0.00,VWS V12.08,2013-01-25 02:43:00,
2013-01-24 21:48:00,18.0,-3.3,29.66,WNW,292,4.0,26.0,38,0.00,,---,0.00,VWS V12.08,2013-01-25 02:48:00,
2013-01-24 21:53:00,18.0,-3.3,29.66,WNW,290,15.0,26.0,38,0.00,,---,0.00,VWS V12.08,2013-01-25 02:53:00,
2013-01-24 21:58:00,18.0,-2.8,29.66,NE,46,6.0,26.0,39,0.00,,---,0.00,VWS V12.08,2013-01-25 02:58:00,
2013-01-24 22:03:00,18.3,-3.6,29.66,North,355,7.0,14.0,37,0.00,,---,0.00,VWS V12.08,2013-01-25 03:03:00,
2013-01-24 22:08:00,18.6,-3.3,29.66,NW,323,3.0,14.0,37,0.00,,---,0.00,VWS V12.08,2013-01-25 03:08:00,
2013-01-24 22:13:00,18.4,-3.0,29.66,ESE,115,0.0,16.0,38,0.00,,---,0.00,VWS V12.08,2013-01-25 03:13:00,
2013-01-24 22:18:00,18.4,-3.0,29.66,ESE,115,1.0,16.0,38,0.00,,---,0.00,VWS V12.08,2013-01-25 03:18:00,
2013-01-24 22:23:00,18.3,-3.0,29.66,SE,145,0.0,16.0,38,0.00,,---,0.00,VWS V12.08,2013-01-25 03:23:00,
2013-01-24 22:28:00,18.1,-2.7,29.67,WSW,248,0.0,16.0,39,0.00,,---,0.00,VWS V12.08,2013-01-25 03:28:00,
2013-01-24 22:33:00,18.0,-3.3,29.67,North,360,18.0,18.0,38,0.00,,---,0.00,VWS V12.08,2013-01-25 03:33:00,
2013-01-24 22:38:00,18.1,-3.2,29.67,NE,44,0.0,19.0,38,0.00,,---,0.00,VWS V12.08,2013-01-25 03:38:00,
2013-01-24 22:43:00,18.0,-2.8,29.67,North,11,0.0,21.0,39,0.00,,---,0.00,VWS V12.08,2013-01-25 03:43:00,
2013-01-24 22:48:00,17.7,-3.6,29.67,SSE,157,0.0,21.0,38,0.00,,---,0.00,VWS V12.08,2013-01-25 03:48:00,
2013-01-24 22:53:00,17.7,-2.5,29.67,North,355,6.0,21.0,40,0.00,,---,0.00,VWS V12.08,2013-01-25 03:53:00,
2013-01-24 22:58:00,17.2,-3.0,29.68,WNW,297,12.0,21.0,40,0.00,,---,0.00,VWS V12.08,2013-01-25 03:58:00,
2013-01-24 23:03:00,17.7,-2.5,29.68,NW,309,3.0,9.0,40,0.00,,---,0.00,VWS V12.08,2013-01-25 04:03:00,
2013-01-24 23:08:00,17.5,-3.2,29.68,North,10,1.0,17.0,39,0.00,,---,0.00,VWS V12.08,2013-01-25 04:08:00,
2013-01-24 23:13:00,17.5,-2.7,29.68,East,94,0.0,17.0,40,0.00,,---,0.00,VWS V12.08,2013-01-25 04:13:00,
2013-01-24 23:18:00,17.7,-3.6,29.68,NNE,25,10.0,17.0,38,0.00,,---,0.00,VWS V12.08,2013-01-25 04:18:00,
2013-01-24 23:23:00,17.8,-3.0,29.68,NNE,22,0.0,17.0,39,0.00,,---,0.00,VWS V12.08,2013-01-25 04:23:00,
2013-01-24 23:28:00,17.8,-4.1,29.68,North,355,14.0,18.0,37,0.00,,---,0.00,VWS V12.08,2013-01-25 04:28:00,
2013-01-24 23:33:00,18.3,-3.6,29.68,SSE,150,3.0,10.0,37,0.00,,---,0.00,VWS V12.08,2013-01-25 04:33:00,
2013-01-24 23:38:00,18.0,-3.9,29.68,SE,135,0.0,13.0,37,0.00,,---,0.00,VWS V12.08,2013-01-25 04:38:00,
2013-01-24 23:43:00,18.0,-3.9,29.67,North,350,7.0,13.0,37,0.00,,---,0.00,VWS V12.08,2013-01-25 04:43:00,
2013-01-24 23:48:00,17.8,-4.1,29.67,WNW,292,9.0,13.0,37,0.00,,---,0.00,VWS V12.08,2013-01-25 04:48:00,
2013-01-24 23:53:00,17.7,-3.6,29.67,West,267,7.0,13.0,38,0.00,,---,0.00,VWS V12.08,2013-01-25 04:53:00,
2013-01-24 23:58:00,17.5,-3.2,29.67,NW,325,0.0,13.0,39,0.00,,---,0.00,VWS V12.08,2013-01-25 04:58:00,